Wind_Speed
56 54 53 52 52 52 53 53 54 54 55 55 55 55 54 53 52 51 52 52 51 49 46 44 43 40 41 43 42 43 46 50 56 56 54 54 52 47 45 47 50 50 49 48 47 47 48 49 50 52 53 53 52 51 48 44 42 44 45 44 45 44 43 42 42 42 40 41 43 44 46 49 50 49 47 45 43 42 43 44 45 44 42 42 41
58 57 55 54 54 54 54 54 55 55 56 56 55 54 54 54 52 52 52 52 51 50 47 44 42 40 39 40 41 43 45 47 54 58 56 55 52 49 48 46 47 49 49 47 47 48 49 51 52 53 54 55 54 53 51 46 43 43 44 46 48 46 44 43 42 41 41 44 46 47 49 50 51 50 46 44 44 43 43 45 48 47 44 43 41
60 59 58 56 55 55 55 55 55 56 56 55 55 55 54 54 53 52 52 52 51 50 48 45 41 39 37 38 39 42 45 46 52 56 56 56 55 54 52 48 46 48 47 44 44 46 47 50 52 53 53 54 54 54 54 52 51 50 49 51 50 45 42 43 42 42 44 47 47 49 50 51 51 49 45 44 45 44 44 47 49 48 46 45 43
59 59 59 58 57 56 56 56 56 56 56 55 55 55 55 55 54 53 52 52 51 49 48 45 41 38 36 36 39 42 45 46 51 55 55 56 57 57 56 52 49 49 48 47 46 46 48 49 51 52 53 54 54 55 54 54 55 53 51 52 50 44 43 45 46 46 49 52 52 51 50 48 48 46 43 44 46 45 45 47 49 49 48 47 45
56 58 58 58 57 57 57 57 56 56 56 55 55 55 55 55 54 53 52 52 51 50 48 45 41 38 34 35 38 42 45 47 50 54 55 55 56 57 57 54 51 50 50 51 50 50 50 51 52 52 52 53 54 55 55 54 54 54 51 49 49 48 47 47 48 48 49 50 51 52 51 47 45 45 45 46 47 46 46 47 48 49 49 49 48
54 56 57 57 57 57 57 56 56 56 56 56 56 55 55 56 55 54 52 52 52 50 48 46 42 37 33 33 39 42 45 47 49 54 55 55 55 56 57 56 54 52 50 50 51 51 50 49 50 50 50 52 53 54 54 53 53 53 51 49 48 47 43 43 45 44 43 44 47 53 56 52 47 47 47 47 48 47 46 46 47 49 50 51 50
53 54 55 55 56 56 56 56 56 56 56 56 56 56 56 56 56 54 53 52 52 51 49 47 42 38 33 32 38 43 45 47 50 54 56 57 57 58 58 58 58 56 53 51 50 51 49 48 48 48 48 51 53 52 53 53 53 52 49 48 47 45 42 42 43 41 43 49 53 56 58 55 50 48 48 48 49 48 47 46 48 49 51 51 51
53 54 54 55 55 56 56 56 56 56 56 56 56 56 57 57 56 55 53 52 51 51 50 48 44 39 34 31 37 44 47 49 53 55 58 58 58 59 60 60 60 59 57 56 55 53 51 49 48 49 50 52 54 54 54 54 54 52 50 48 48 48 48 48 48 49 53 57 57 54 54 56 53 50 50 51 49 48 47 47 48 49 50 50 50
53 54 54 55 56 56 56 57 57 57 57 57 57 57 57 57 56 55 54 52 51 50 49 48 46 41 36 32 35 44 50 53 54 56 59 60 59 60 61 61 61 59 58 60 60 58 55 51 50 51 52 53 54 55 55 56 55 54 52 50 49 50 51 51 53 56 57 56 55 53 54 56 55 52 52 52 50 48 48 48 48 48 49 49 49
53 53 54 54 55 56 57 57 57 57 57 57 58 58 58 58 57 56 55 53 51 50 49 48 46 44 39 35 33 41 52 57 57 56 58 60 60 61 62 63 64 62 60 60 61 60 59 56 54 54 54 55 55 55 55 56 57 57 55 52 51 51 52 52 54 56 56 56 57 55 54 56 56 54 53 53 52 50 49 49 48 48 49 49 49
54 53 54 55 55 56 57 58 58 58 58 58 59 59 59 58 58 57 56 54 51 50 49 48 46 45 42 38 35 38 49 59 61 59 59 60 61 62 63 64 66 66 63 60 59 60 60 60 59 58 59 58 58 57 56 55 55 56 57 56 55 54 54 56 57 58 58 58 58 57 56 57 56 55 54 55 54 51 49 49 49 49 50 50 49
56 55 56 56 56 57 58 58 59 59 59 59 60 60 59 59 58 58 56 55 53 51 49 48 47 45 44 41 38 37 44 56 64 64 62 61 61 63 64 64 66 68 68 64 60 59 59 60 59 59 61 61 59 57 56 56 55 55 56 58 58 57 57 59 60 59 59 60 59 59 60 59 58 57 55 54 53 51 50 51 51 51 52 51 50
57 57 57 57 57 58 59 60 60 60 60 60 60 60 60 60 59 59 58 56 55 53 51 49 47 45 44 43 42 39 40 50 61 66 67 64 62 63 66 67 66 68 70 70 67 63 62 62 60 60 60 60 60 58 56 55 56 56 56 57 58 57 58 60 61 61 62 63 62 61 61 60 59 58 55 53 53 52 52 53 53 53 53 52 51
59 59 58 58 58 59 60 61 61 61 61 61 61 61 61 61 60 59 59 58 57 56 54 51 49 47 44 43 44 43 41 44 55 64 69 68 65 64 66 68 68 68 69 71 71 69 68 67 65 65 63 60 60 59 56 54 54 54 56 57 58 58 57 57 58 58 59 61 61 62 62 61 61 60 57 54 54 54 55 56 55 54 54 54 53
60 60 60 59 59 60 60 61 61 62 62 62 62 62 62 61 61 60 60 59 58 57 56 54 52 50 46 43 44 45 44 44 49 59 68 71 70 68 68 68 69 69 68 69 72 72 72 71 70 70 69 65 63 60 58 56 55 54 54 57 60 61 61 60 59 57 56 59 60 62 63 63 63 61 59 57 56 57 57 58 58 56 57 58 57
62 61 61 61 61 61 61 61 62 63 63 63 63 62 62 62 62 62 61 60 60 59 58 57 55 53 50 46 44 44 47 47 47 53 64 72 75 74 73 71 70 69 68 68 69 70 72 73 73 73 72 71 68 64 62 61 60 57 55 57 59 61 63 64 64 61 60 61 62 62 62 61 59 59 59 59 59 60 59 60 60 60 60 59 58
62 62 62 62 62 62 62 63 63 64 64 63 63 63 63 63 63 63 63 62 62 61 60 59 58 57 54 51 47 45 46 49 50 51 57 68 76 79 79 77 74 73 72 71 70 70 72 73 74 73 73 74 73 70 67 65 65 63 60 58 58 59 62 65 65 63 63 63 61 60 60 58 58 59 61 62 63 63 62 62 62 62 61 60 60
63 63 63 63 63 63 64 64 64 65 65 64 64 64 64 65 65 64 64 64 64 64 63 62 61 60 58 55 53 49 47 49 51 53 55 61 71 79 83 83 81 79 77 76 75 74 75 75 75 74 73 73 74 74 73 70 69 67 65 62 60 60 63 65 64 63 62 61 61 61 60 61 61 62 63 64 65 66 65 64 64 63 63 63 63
64 64 64 64 64 64 65 65 65 65 65 65 65 66 66 66 66 66 66 66 66 66 66 65 64 63 61 59 57 54 51 50 52 54 56 59 64 72 80 84 85 85 83 82 80 79 79 79 79 78 76 74 73 74 76 76 74 71 69 67 65 64 65 65 63 62 62 62 63 62 61 63 64 64 64 66 67 67 68 68 67 67 67 66 67
64 65 65 65 65 65 65 65 66 66 66 66 67 67 68 68 68 69 69 69 69 68 68 68 67 66 64 62 60 58 56 54 54 55 58 61 63 68 74 79 83 85 86 85 83 81 79 79 79 79 80 80 78 78 78 78 78 76 74 73 71 69 67 67 65 66 65 64 64 64 62 63 65 65 66 67 69 70 71 70 71 71 70 70 71
64 64 65 65 65 65 65 66 67 67 67 68 68 69 69 70 71 71 71 71 71 71 70 70 69 69 67 66 64 62 61 59 58 57 59 62 65 68 71 75 79 82 84 85 84 81 78 78 77 76 76 78 80 81 81 81 80 78 77 76 75 73 71 69 68 69 69 67 65 64 64 64 65 66 66 67 68 70 70 70 71 72 73 73 74
63 64 64 65 65 65 66 67 67 68 69 69 70 71 72 72 73 73 74 74 74 74 74 73 72 71 70 69 68 66 65 63 61 60 60 63 67 69 71 73 76 79 81 82 82 81 79 78 78 77 74 73 74 77 79 80 79 78 77 77 77 76 75 73 72 71 72 71 69 69 68 68 69 69 68 69 69 68 69 70 72 73 74 74 74
63 63 64 65 65 66 67 68 69 70 70 71 72 73 74 74 75 76 76 76 77 76 76 76 75 73 72 71 70 68 67 65 64 62 62 64 67 71 73 74 75 77 79 79 80 79 78 78 80 80 78 75 72 73 75 76 76 76 75 75 76 77 77 76 75 75 75 75 75 74 73 73 73 73 73 73 72 71 71 72 73 74 75 74 73
63 64 64 65 66 67 68 69 70 71 72 73 74 74 75 76 77 78 78 78 78 78 78 77 77 75 73 71 70 68 67 65 64 63 62 63 66 70 73 75 75 77 79 80 80 79 78 78 81 83 83 79 76 74 74 74 75 75 74 73 73 75 75 75 75 76 77 78 78 78 77 76 76 76 76 76 75 75 74 75 75 76 76 76 75
64 64 65 66 67 68 69 70 71 73 74 75 76 77 78 78 79 79 80 80 79 79 78 77 75 74 72 70 68 67 65 65 64 63 63 63 65 69 72 75 76 76 78 80 81 80 79 79 80 84 86 84 81 78 76 76 76 76 76 75 74 74 74 74 75 76 76 77 77 78 78 78 77 78 78 77 78 78 77 77 77 77 77 77 77
64 65 66 67 69 70 71 72 73 75 76 77 78 78 79 80 80 80 80 79 78 76 75 74 73 71 70 69 67 66 65 64 65 65 64 64 65 67 71 74 76 76 77 79 82 82 81 80 80 83 87 88 85 82 80 79 78 79 79 79 78 77 77 76 76 76 77 77 77 78 78 79 79 79 79 79 79 79 79 78 78 78 79 79 80
65 66 68 69 71 72 73 74 75 76 77 78 79 79 80 79 79 78 78 77 75 74 73 72 71 70 69 68 67 66 65 65 65 66 66 66 66 67 70 73 75 77 77 78 80 83 83 83 82 83 87 90 89 86 84 81 79 80 81 82 82 82 81 79 79 79 79 80 81 81 81 81 81 80 80 80 80 80 80 80 80 80 81 82 83
67 68 69 71 72 74 75 76 77 78 79 79 79 79 78 77 76 75 75 74 74 73 71 70 69 67 66 65 65 65 65 65 65 66 67 68 68 68 70 72 74 76 78 78 79 81 84 85 84 84 86 90 91 91 89 85 82 80 81 83 84 85 84 83 81 81 81 82 82 83 83 83 83 82 81 81 81 81 82 82 82 83 84 85 86
68 69 71 72 73 75 76 77 78 78 78 78 77 76 75 74 74 73 72 70 69 67 66 65 65 64 63 61 60 61 62 63 64 65 67 69 70 70 71 72 74 76 77 78 79 80 82 85 86 86 87 89 91 93 93 91 88 84 82 82 83 85 86 86 85 85 84 84 85 85 85 85 85 84 84 83 83 83 84 84 85 85 86 87 88
69 71 72 73 74 75 76 76 76 76 76 75 75 74 73 71 70 68 66 64 62 60 59 59 60 61 61 59 57 57 58 59 60 62 65 68 71 72 72 73 74 76 77 78 79 79 80 82 85 88 89 89 91 93 94 95 93 90 86 83 83 84 86 88 89 89 88 88 88 88 87 87 87 87 86 85 85 85 86 87 87 88 89 90 90
71 72 72 73 73 73 73 73 73 73 73 73 72 71 69 67 65 63 61 59 57 54 53 52 53 55 58 58 55 54 55 56 57 58 60 64 69 72 74 74 75 76 78 79 79 80 80 81 83 87 89 91 91 92 94 96 97 96 92 89 86 85 86 87 90 91 92 92 92 91 91 90 90 89 89 88 88 88 88 89 90 90 91 91 91
70 71 71 71 71 71 70 70 70 70 70 69 67 65 63 62 60 59 58 57 54 51 48 46 46 48 52 54 54 52 52 53 55 56 57 59 63 69 73 75 76 77 78 79 80 81 81 81 81 84 88 91 93 93 93 95 98 99 98 95 92 89 87 87 89 90 92 93 94 94 94 94 94 93 93 92 92 91 91 92 92 92 93 93 94
68 68 68 68 68 68 68 68 67 66 64 63 61 60 58 57 57 56 56 55 53 50 46 43 42 43 45 49 51 51 49 50 51 54 55 57 59 63 68 72 75 77 79 80 81 81 82 82 82 83 85 89 93 95 95 94 96 99 100 100 98 96 93 91 90 90 91 92 93 94 95 95 96 96 96 95 95 95 95 95 95 95 96 97 97
65 65 65 66 66 65 64 63 61 60 59 58 57 56 55 54 53 52 52 52 52 50 46 42 39 39 40 43 46 48 48 47 47 50 52 54 56 58 62 67 71 74 77 80 82 82 83 83 84 84 84 86 89 94 96 97 97 98 99 101 102 101 100 98 95 93 92 92 93 93 94 95 95 96 96 97 97 98 98 98 98 98 99 99 100
62 63 63 62 62 60 59 57 56 55 55 54 54 53 52 51 49 47 47 48 49 49 48 44 40 37 37 38 40 43 45 46 45 46 48 51 53 55 58 61 66 69 73 77 80 83 84 85 85 85 86 86 87 90 94 97 99 99 100 100 102 103 103 103 102 100 98 96 95 94 94 94 95 96 96 97 97 98 98 99 99 100 100 100 100
59 58 58 57 57 55 54 53 52 52 52 52 51 51 49 48 47 45 44 44 44 45 46 46 43 39 36 36 37 39 41 43 44 44 45 47 49 52 54 57 61 64 68 72 75 80 83 85 87 87 87 87 88 89 91 94 98 101 102 102 102 103 104 104 105 105 104 103 101 99 98 96 96 96 96 97 97 98 98 99 99 100 100 100 100
54 53 53 53 52 52 51 50 49 49 49 49 48 48 47 46 45 45 43 42 41 41 41 42 43 42 39 36 35 36 38 40 42 43 43 44 46 48 51 54 56 59 63 66 70 74 78 82 85 88 89 89 89 90 91 92 95 99 102 104 104 105 105 105 106 107 107 107 106 105 104 102 100 99 98 97 97 97 98 98 99 100 100 101 101
49 49 49 49 49 49 48 48 47 47 47 46 46 45 45 45 45 44 43 42 40 39 38 38 39 40 40 38 36 35 35 36 38 40 41 42 43 45 48 50 53 55 58 62 65 68 72 76 80 84 87 89 91 91 92 93 94 96 99 102 105 106 107 107 107 108 108 109 109 108 108 107 106 104 102 101 100 99 99 99 100 100 100 100 100
45 44 44 45 46 46 46 45 45 45 45 45 44 44 44 44 44 44 44 43 41 39 37 36 35 34 35 37 37 35 34 33 35 37 38 40 41 43 45 47 50 52 54 57 60 64 67 70 74 77 81 85 89 91 93 94 95 95 97 99 102 105 107 109 110 110 110 110 111 111 110 110 109 108 106 105 104 104 103 103 103 103 102 102 101
41 41 42 43 44 44 44 44 44 44 44 44 44 44 44 45 44 44 44 43 42 40 38 36 34 32 31 32 33 35 34 33 33 33 35 37 39 41 42 44 46 49 52 54 56 59 62 66 69 72 75 79 83 86 90 92 95 96 97 98 99 101 104 107 109 111 112 112 113 113 113 113 112 111 110 109 109 108 108 107 107 107 106 106 106
38 39 40 41 42 42 42 43 43 43 43 43 44 44 45 45 45 44 43 43 43 42 40 38 36 35 32 31 30 30 32 33 32 32 33 34 35 37 40 42 43 46 48 51 53 56 58 61 64 67 71 74 77 80 84 87 91 94 96 98 99 100 101 103 105 108 110 112 113 114 115 116 116 115 114 114 113 113 112 112 112 111 111 110 110
36 37 38 39 40 40 41 42 42 42 42 43 43 43 43 44 44 43 43 42 42 42 41 40 39 37 35 33 31 30 29 30 30 31 31 32 33 34 36 38 41 43 45 47 50 53 55 57 60 63 66 69 72 75 78 81 84 87 91 94 96 99 100 102 103 104 106 108 110 112 114 116 117 117 117 117 116 116 116 116 115 115 115 114 113
35 36 37 38 38 39 39 40 41 41 41 41 42 42 42 42 41 41 41 41 41 40 40 40 40 39 38 36 35 33 31 30 29 28 28 30 32 33 34 35 37 39 41 44 46 49 51 54 56 59 61 64 67 70 73 76 79 82 85 87 90 93 96 99 101 103 104 106 107 109 110 112 114 115 116 117 118 118 118 118 118 118 118 118 118
34 35 36 37 37 37 38 39 39 40 40 41 41 41 41 40 40 39 39 39 39 39 39 39 39 39 39 38 37 36 35 34 32 31 29 28 29 31 33 33 34 36 37 40 42 45 47 50 53 55 58 61 63 65 68 71 74 77 80 83 85 87 90 92 95 98 100 103 105 106 107 109 110 111 112 114 115 116 117 118 119 119 120 120 120
34 35 36 36 36 37 37 38 39 40 40 40 40 40 40 39 39 39 38 38 38 38 38 38 38 38 38 38 37 37 37 36 35 35 34 32 30 29 30 32 33 34 35 37 38 40 43 46 48 51 54 57 60 62 64 67 69 72 75 78 80 83 85 87 89 92 94 96 99 101 103 105 106 108 109 110 111 112 113 115 116 117 117 118 118
34 35 35 36 36 36 37 37 38 39 39 40 40 40 39 39 39 38 38 37 37 37 37 37 38 38 38 38 37 36 36 36 36 36 36 36 34 32 31 31 31 32 34 35 36 37 39 41 44 46 49 52 55 58 61 63 66 68 70 72 75 78 81 83 85 87 89 91 93 95 97 99 100 102 104 106 107 108 110 111 113 113 114 114 115
33 34 35 35 36 36 37 37 38 39 39 39 39 39 39 38 39 38 38 37 37 37 37 37 37 37 37 37 37 36 36 36 36 36 36 36 36 36 35 33 32 31 32 32 34 35 37 38 40 42 44 47 50 53 56 59 62 64 67 69 71 73 76 78 80 83 85 87 89 91 93 94 96 97 99 100 102 103 104 106 107 108 109 110 111
33 34 34 35 35 36 37 38 39 39 39 39 38 38 39 38 38 39 39 38 37 37 37 37 37 37 36 36 36 36 36 35 36 36 36 36 36 36 37 36 35 34 33 32 32 32 34 35 37 39 40 43 45 48 51 54 57 59 62 65 67 70 72 74 76 78 80 82 84 86 88 90 92 94 95 97 98 99 101 102 103 104 105 106 107
32 33 34 34 35 36 37 39 39 39 39 39 38 38 39 39 39 39 39 39 39 38 38 37 37 37 37 37 36 36 35 35 35 35 36 36 35 35 36 36 36 36 35 34 33 33 32 33 34 36 38 40 41 43 46 49 52 54 57 60 62 65 68 70 72 74 76 78 80 82 83 85 87 89 90 92 94 95 97 98 100 101 102 103 104
31 32 33 34 35 36 37 39 39 39 39 39 39 39 39 39 40 40 40 40 40 40 39 39 38 38 38 38 37 37 36 36 35 35 35 36 36 35 35 35 35 36 36 36 35 35 35 34 33 33 35 37 39 41 42 44 47 49 52 55 58 60 62 65 67 70 72 75 77 79 80 82 83 85 86 87 89 90 92 93 94 96 97 98 99
31 32 33 34 35 36 37 38 39 39 39 39 40 40 40 40 41 41 41 41 41 41 41 41 41 40 40 39 39 38 38 37 37 36 36 36 36 35 35 34 34 34 35 35 35 36 36 37 36 35 34 35 36 38 40 42 43 45 48 50 53 55 58 60 62 65 67 69 72 74 76 78 80 81 83 84 86 87 88 89 90 91 92 93 93
Wind_Direction
268 270 273 275 276 276 277 278 280 282 284 287 289 292 295 298 301 304 306 308 310 309 305 299 291 280 268 263 254 245 239 231 224 223 226 226 225 226 230 232 234 236 239 242 243 244 246 248 250 252 254 256 257 258 260 265 268 269 270 268 269 273 274 273 275 276 278 278 279 283 287 290 293 296 299 299 300 307 314 317 319 317 313 312 314
266 268 271 273 275 276 277 278 279 281 284 286 288 291 294 297 300 303 306 308 310 310 307 302 296 286 272 263 254 242 237 232 223 219 223 225 222 221 224 228 232 235 238 242 244 246 247 248 249 251 253 255 256 256 257 260 262 265 269 268 268 271 273 273 274 275 275 275 276 280 283 286 290 293 295 295 297 304 310 313 316 318 316 313 312
264 267 269 271 273 275 276 277 279 281 283 285 288 290 293 296 299 302 305 307 310 311 310 305 300 292 278 263 251 239 234 231 223 218 221 223 222 220 221 225 229 232 235 238 241 244 246 247 248 249 251 254 256 256 257 258 258 261 266 268 269 274 275 273 272 274 275 275 275 277 281 285 288 290 291 292 295 301 307 309 313 316 317 315 312
264 265 267 270 272 273 275 277 279 280 282 284 287 290 292 295 298 301 304 307 310 311 311 308 304 296 281 263 249 238 232 229 223 219 220 223 224 223 223 226 229 230 232 234 238 241 243 245 248 249 250 252 254 255 257 257 258 261 266 269 269 269 269 271 275 279 279 278 277 277 280 284 286 287 289 291 294 299 303 306 309 312 315 317 314
265 265 266 268 270 272 275 276 278 280 281 284 286 289 291 294 296 300 303 306 309 311 311 310 307 301 285 262 246 237 232 228 222 218 219 222 224 225 225 226 227 229 232 234 237 240 242 244 247 249 250 251 252 253 255 256 257 259 263 266 267 269 272 276 279 280 278 278 280 282 283 285 284 284 289 291 292 297 300 303 306 309 312 315 315
268 267 267 268 270 272 274 276 278 280 281 283 285 287 290 292 295 298 301 305 308 310 311 310 308 304 290 263 244 235 232 227 220 217 217 220 222 224 225 226 227 227 230 232 236 239 240 242 245 247 249 251 251 251 252 254 257 259 261 263 267 272 274 274 274 272 270 273 281 286 287 286 283 284 288 289 290 293 297 300 303 306 309 312 313
271 269 269 269 270 272 274 276 278 279 281 283 284 286 288 291 294 297 300 303 306 308 310 310 308 305 295 269 243 234 230 225 219 217 217 218 220 222 224 227 228 229 230 231 234 237 239 241 242 243 245 248 250 250 251 253 255 257 260 263 265 266 264 265 269 269 269 273 279 283 284 283 283 284 287 286 287 290 294 297 301 304 307 309 310
273 272 271 271 271 273 274 276 277 279 280 282 284 285 287 289 292 295 298 301 304 306 308 310 308 305 298 277 248 233 227 222 218 218 218 217 219 222 224 227 229 231 232 233 234 236 239 242 243 242 243 246 249 251 252 252 253 256 259 262 264 263 260 260 262 266 271 276 278 278 278 280 281 283 285 284 285 288 292 296 299 301 304 306 307
274 273 273 272 272 273 275 276 277 279 280 281 283 284 286 288 291 293 296 299 302 304 306 308 308 304 300 286 257 235 225 220 219 221 220 218 219 222 224 226 228 230 232 235 235 236 240 243 244 244 244 246 247 249 251 251 252 254 257 259 261 262 261 261 261 265 270 273 274 275 276 279 282 285 286 285 285 288 291 294 296 298 300 302 303
275 275 274 274 273 274 275 276 277 278 279 280 282 283 285 287 290 292 294 297 299 302 303 305 306 304 299 291 269 243 227 221 222 223 223 222 222 223 224 226 227 228 232 236 236 237 240 243 244 245 245 246 246 247 249 251 252 253 255 257 258 259 261 264 264 265 266 267 269 272 276 279 284 286 285 284 286 288 290 291 294 296 297 299 300
276 277 276 275 274 274 275 276 277 278 279 280 281 283 284 286 289 291 293 295 297 299 301 302 304 303 299 293 280 255 235 225 224 225 226 225 225 226 227 227 228 229 232 236 237 238 241 243 245 246 247 247 247 248 249 251 252 253 254 255 256 257 260 263 263 263 263 262 264 268 272 276 280 282 282 282 284 286 286 288 291 293 294 296 296
278 278 278 277 276 276 276 276 277 278 279 280 281 283 284 286 288 290 292 294 295 296 298 299 301 301 298 293 285 269 247 232 227 226 227 227 228 229 229 230 230 230 232 234 236 237 239 242 243 245 245 246 247 249 250 251 252 254 254 254 255 257 258 260 261 261 260 259 261 266 270 274 276 278 279 281 281 281 282 285 287 289 291 292 292
279 279 279 278 278 277 277 277 278 278 279 280 281 283 284 285 287 289 291 292 294 294 295 297 297 298 297 293 287 277 259 242 233 229 228 227 229 231 232 232 232 233 232 234 235 236 237 239 240 241 242 243 246 248 250 252 254 255 256 256 256 257 258 259 260 260 259 260 262 266 269 272 274 276 278 279 278 278 280 283 285 287 288 288 289
279 279 279 279 278 278 277 277 278 279 279 280 281 283 284 285 287 288 290 291 292 293 294 295 295 295 294 292 287 281 270 252 239 233 230 228 229 232 233 233 234 235 235 235 236 237 237 239 240 241 241 242 245 247 249 251 253 255 256 256 255 255 254 255 257 259 261 262 263 264 267 270 273 276 278 277 276 276 279 281 283 285 285 286 287
280 280 280 280 279 279 278 278 279 279 280 281 282 283 284 285 287 288 289 290 291 292 293 293 293 293 292 290 287 282 276 264 248 237 233 230 229 230 232 232 233 234 236 236 237 238 239 240 242 243 243 243 245 245 246 249 251 253 253 253 252 253 253 253 255 259 261 262 264 266 268 270 273 275 276 275 274 274 276 278 280 282 282 284 285
280 280 280 280 280 280 280 280 280 280 281 282 283 284 285 285 286 287 288 289 290 290 291 292 292 291 290 288 285 280 276 271 260 245 236 232 230 230 231 231 231 231 233 236 238 239 241 241 242 244 244 244 244 243 245 248 251 252 252 251 251 253 255 256 257 258 259 262 267 270 270 271 273 274 273 272 272 273 274 276 279 280 281 282 284
280 281 281 281 281 281 281 281 281 282 283 283 284 285 285 286 286 287 287 288 289 289 290 290 290 290 289 287 283 279 274 271 267 257 244 236 233 232 232 232 232 231 232 234 237 240 242 243 244 245 246 245 243 242 243 247 251 252 252 252 253 256 257 257 257 258 259 262 266 266 267 268 268 268 269 269 271 273 276 278 279 279 279 280 282
281 281 281 281 281 281 281 282 282 283 283 284 284 285 285 285 286 286 287 287 288 288 289 289 289 288 288 286 283 279 273 269 266 263 255 245 237 235 235 235 235 234 235 236 238 241 243 244 245 247 248 247 245 244 243 245 248 250 251 252 254 256 258 257 258 258 258 259 260 260 262 264 264 265 267 269 272 276 278 279 278 277 278 279 281
281 281 281 281 281 282 282 282 283 283 284 284 284 285 285 285 285 286 286 287 287 288 288 288 287 287 286 285 283 280 275 269 265 262 259 254 246 239 237 237 238 238 238 239 241 242 245 246 247 247 248 248 247 246 245 245 245 247 249 252 253 254 255 255 255 255 254 255 257 258 259 261 262 264 266 269 273 276 277 277 277 276 277 279 281
282 282 282 282 282 283 283 283 283 284 284 284 284 285 285 285 286 286 286 286 286 287 287 286 286 286 285 283 281 279 275 271 266 262 259 256 252 246 241 239 239 240 240 241 242 243 245 246 247 247 247 248 247 247 248 248 247 247 248 251 253 253 253 253 252 251 252 254 255 256 256 257 260 263 265 268 271 274 275 276 277 277 279 280 281
281 282 282 282 283 283 283 283 283 284 284 284 285 285 285 285 286 286 286 286 286 286 285 285 285 284 283 282 280 278 275 271 267 262 258 256 254 250 246 242 240 240 240 241 242 242 242 243 243 244 245 247 248 247 248 249 249 249 250 251 253 253 252 252 251 251 251 252 252 253 254 255 258 261 265 268 271 273 275 276 277 279 280 282 284
281 281 281 282 282 283 283 283 284 284 284 284 284 285 285 285 285 286 286 286 286 286 285 284 284 283 282 280 279 277 275 271 267 263 258 255 253 251 248 245 242 241 240 240 240 241 240 240 239 240 241 244 246 247 247 248 249 250 250 251 252 252 252 252 251 250 251 251 251 253 255 257 259 261 265 268 270 272 273 275 277 279 281 283 285
281 281 281 282 282 282 283 283 283 283 284 284 284 284 285 285 285 285 285 285 285 285 285 284 283 282 281 279 278 276 273 271 267 263 258 254 252 250 248 246 244 242 241 241 240 240 239 239 238 237 238 240 243 246 247 247 247 247 248 249 250 251 252 252 252 252 251 252 252 254 256 258 260 262 265 267 268 270 271 273 276 278 280 282 283
281 281 281 282 282 282 282 283 283 283 284 284 284 285 285 285 285 285 285 285 285 285 284 283 282 281 279 278 276 274 272 269 266 263 258 254 251 250 248 247 245 243 242 241 241 240 239 238 237 237 237 238 240 243 246 247 246 245 245 245 247 249 251 252 252 253 253 253 254 255 256 259 261 263 265 267 268 270 272 274 276 277 279 280 281
282 282 282 283 283 283 283 284 284 284 285 285 285 285 286 286 286 286 286 285 285 284 283 282 281 279 277 275 273 271 269 267 264 261 258 254 251 249 248 247 246 245 243 241 241 240 240 238 237 237 237 237 239 241 244 245 246 245 244 244 245 247 250 251 252 254 255 256 256 257 258 260 262 264 266 268 270 272 273 274 275 276 277 278 279
283 283 284 284 284 284 284 285 285 285 286 286 286 287 287 287 287 287 287 286 285 284 283 282 280 278 276 274 272 269 266 264 262 260 257 253 250 248 247 247 246 245 244 243 241 240 240 239 238 237 237 237 238 240 242 244 245 246 245 245 245 246 248 250 252 254 256 257 258 259 260 261 263 265 267 269 271 272 273 273 274 274 275 276 277
284 284 284 285 285 286 286 286 286 287 287 287 288 288 289 289 289 288 288 287 286 285 284 282 280 278 276 274 271 268 265 262 259 257 256 253 250 247 246 246 246 245 245 244 242 241 240 240 239 238 238 237 237 239 242 243 244 246 246 246 246 246 248 250 252 254 255 257 258 259 261 262 263 265 266 267 269 270 271 272 272 273 274 275 275
285 285 286 286 287 287 288 288 288 289 289 289 290 290 290 290 290 289 289 288 288 287 285 284 282 279 277 274 271 268 265 261 258 255 254 252 250 247 245 244 244 244 244 244 243 242 241 240 240 240 239 238 237 238 240 242 243 245 246 247 247 247 248 250 251 252 254 255 257 258 260 261 263 264 265 266 267 268 269 270 271 272 272 273 274
286 286 287 287 288 288 289 290 290 291 291 291 291 291 291 291 291 291 290 289 288 287 285 284 283 281 278 275 271 268 265 262 258 254 252 251 250 248 245 243 243 243 243 243 243 243 242 240 240 240 241 240 238 238 239 241 242 243 245 246 247 248 249 249 250 251 252 254 255 257 258 260 261 262 263 264 265 266 267 268 269 270 271 272 273
287 287 288 288 289 290 290 291 292 292 292 293 293 293 293 293 293 292 291 289 288 286 284 283 281 280 279 276 273 269 266 263 260 256 252 250 249 248 246 243 242 242 243 243 243 243 243 242 240 240 240 241 241 239 239 240 242 243 243 244 246 247 248 249 250 251 252 253 254 255 257 258 259 261 262 263 264 265 266 267 268 269 270 271 272
288 289 290 290 291 291 292 292 293 293 294 294 295 295 295 295 295 294 293 292 290 288 286 283 280 279 278 277 274 270 267 264 261 258 254 251 248 247 246 245 243 242 242 242 242 242 242 242 241 240 240 241 242 241 240 240 241 243 243 244 245 246 247 249 250 251 252 253 255 256 257 258 259 260 261 262 263 264 265 266 267 268 269 270 270
289 290 290 291 291 292 292 293 294 295 295 296 296 297 297 297 297 297 296 295 294 292 290 287 282 279 277 277 276 273 268 264 262 259 256 253 250 248 247 246 244 242 241 241 242 242 242 242 242 241 240 240 241 242 242 241 241 242 243 244 244 245 246 248 249 251 252 253 255 256 258 259 260 261 262 263 263 264 264 265 266 266 267 268 269
290 290 291 291 292 293 293 294 295 296 296 297 298 298 299 300 300 300 299 298 297 296 294 291 287 282 278 276 276 275 271 267 263 260 258 255 252 250 248 247 246 244 242 241 241 241 242 242 242 242 241 241 240 241 242 242 242 243 244 244 244 245 245 246 248 249 251 252 254 255 257 259 260 261 262 263 263 263 264 264 265 265 266 267 268
290 291 292 292 293 293 294 295 296 297 298 299 300 301 302 302 302 302 302 301 301 300 298 295 292 287 282 278 276 276 274 271 266 262 260 257 254 251 249 248 247 246 244 243 242 241 242 242 243 243 242 242 241 241 241 242 242 243 244 245 245 245 245 246 247 248 250 251 252 254 255 257 258 259 260 261 262 263 263 264 264 265 266 267 268
291 292 292 293 293 294 295 296 298 299 300 302 303 303 304 304 304 304 304 304 304 303 302 301 298 293 288 282 278 276 275 274 270 266 262 259 257 254 252 250 249 248 247 245 244 242 242 242 242 243 243 243 243 242 242 242 242 243 244 245 245 246 246 247 247 248 249 250 251 253 254 255 256 258 259 260 261 262 262 263 264 264 265 266 267
292 292 293 293 294 295 297 298 300 301 302 303 304 305 306 307 307 307 307 307 306 305 304 303 302 300 296 290 284 280 277 275 273 270 266 262 259 257 255 252 250 249 248 247 246 245 244 243 242 243 243 244 244 244 243 243 243 243 244 245 246 246 247 247 248 249 249 250 251 252 253 254 255 256 257 258 260 261 262 263 264 265 265 266 267
292 293 294 294 295 296 298 300 301 303 304 305 307 308 309 310 311 311 311 310 308 306 304 304 303 302 300 296 291 286 281 277 275 273 270 266 262 259 257 255 253 251 249 249 248 247 246 245 244 243 243 243 244 245 245 245 244 244 244 244 245 246 247 248 248 249 250 251 252 252 253 254 255 255 256 257 258 259 260 262 263 264 265 266 267
293 294 294 295 296 297 299 301 302 304 306 307 309 310 312 313 314 314 313 313 311 309 307 305 303 303 302 300 297 292 287 282 278 275 273 269 266 262 259 257 255 253 251 250 249 248 248 247 246 246 245 244 244 244 245 246 246 246 245 245 245 246 247 248 248 249 250 251 252 253 254 255 255 256 257 257 257 258 258 259 261 262 263 265 266
293 293 293 294 296 298 300 302 303 305 308 309 311 313 314 315 316 317 316 316 315 313 311 308 305 303 301 300 299 297 292 287 283 279 276 273 269 266 262 260 258 256 254 252 251 250 249 248 248 247 247 246 245 245 245 245 246 247 247 247 247 247 247 248 248 249 250 251 252 253 254 255 256 257 258 258 259 259 259 260 260 261 262 263 264
292 293 293 294 296 298 301 303 305 307 310 312 314 316 317 318 319 319 319 318 317 316 315 313 310 307 304 301 300 299 297 293 289 284 280 276 273 270 267 263 260 258 257 255 253 252 250 249 249 248 248 248 248 247 246 246 246 247 247 248 248 248 248 248 249 249 250 251 252 253 254 255 256 257 258 258 259 260 260 261 261 262 263 263 264
291 292 293 295 297 299 302 304 307 310 312 314 316 318 318 319 319 320 320 320 319 319 318 317 316 314 311 308 304 302 300 297 295 291 286 281 276 273 271 268 264 261 259 257 256 255 253 251 250 250 249 249 249 249 248 248 248 247 248 248 249 249 250 250 250 250 251 251 252 253 253 254 255 256 257 258 259 260 261 262 262 263 263 264 264
292 293 294 295 298 301 303 306 308 311 313 314 316 317 318 319 320 320 321 321 321 321 321 320 319 318 316 314 311 308 305 301 298 296 293 289 283 278 274 271 269 266 263 260 258 257 256 255 253 252 251 250 250 250 250 249 249 249 249 249 249 250 250 250 251 251 252 252 253 253 254 254 255 256 257 258 259 260 261 262 262 263 264 264 265
293 294 295 296 299 302 304 306 308 310 312 313 315 316 317 318 319 321 321 322 322 322 322 321 321 320 319 319 317 315 312 309 305 300 296 294 291 286 281 276 273 270 267 265 262 260 258 257 256 255 254 253 252 251 251 251 251 251 251 251 251 251 251 251 251 252 252 253 254 254 255 255 256 257 257 258 258 259 260 261 262 263 264 264 265
294 294 295 297 299 301 303 304 306 308 311 313 314 315 317 318 319 320 322 322 323 323 323 323 322 322 321 321 320 319 318 316 314 310 305 300 297 293 289 285 280 276 272 269 266 264 262 260 258 257 256 255 254 253 253 252 252 252 252 252 252 252 252 252 252 253 253 253 254 255 255 256 257 257 258 259 259 260 260 261 262 263 264 264 265
294 294 295 297 299 301 302 304 306 308 311 312 314 315 317 318 320 321 322 323 324 324 324 323 323 323 322 321 321 320 320 319 318 316 313 309 305 301 296 291 287 283 280 275 272 269 266 264 262 260 258 257 257 256 255 254 254 253 253 253 253 253 254 254 254 254 254 254 255 255 256 256 257 257 258 259 260 260 261 262 262 263 264 265 266
294 294 295 297 298 300 301 303 306 308 311 312 314 315 317 319 320 322 323 324 324 325 325 325 325 324 323 322 321 321 320 319 319 318 317 315 312 309 304 299 293 289 285 282 279 275 271 268 266 264 262 260 259 258 257 257 256 255 255 254 254 254 254 255 255 255 255 256 256 256 257 257 257 258 258 259 259 260 261 262 262 263 264 265 265
293 293 295 296 298 299 301 303 306 308 310 311 313 315 317 319 320 321 323 324 325 325 326 326 325 325 324 323 322 321 321 320 319 319 318 317 315 313 310 307 302 297 291 287 283 281 278 275 271 268 266 264 262 261 260 259 258 257 257 256 256 255 255 255 255 256 256 256 257 257 258 258 258 259 259 260 260 261 261 262 263 263 264 264 265
292 293 294 296 297 299 302 304 307 309 310 312 314 315 317 319 321 322 323 324 325 326 326 326 326 325 324 324 323 322 322 322 321 320 319 317 316 314 312 311 308 305 301 295 290 286 282 280 277 274 271 268 266 264 263 262 260 259 258 258 257 257 257 256 256 256 256 257 257 257 258 258 259 259 260 260 261 262 262 263 263 264 265 265 266
291 292 294 296 298 300 303 306 308 310 311 312 314 316 318 319 321 323 324 325 325 326 326 327 327 326 326 325 324 323 323 322 322 321 320 319 317 315 314 312 310 309 306 303 299 295 290 286 283 280 278 275 271 268 266 264 263 262 261 260 259 258 258 258 257 257 257 257 257 258 258 258 259 259 260 260 261 261 262 263 263 264 265 266 266
290 292 294 296 299 302 304 307 308 310 312 313 315 317 318 320 322 323 324 325 326 327 327 328 328 328 328 327 326 325 324 323 323 323 322 321 319 317 315 313 312 311 309 308 305 303 299 295 291 287 283 281 278 275 272 269 266 265 264 263 262 261 261 260 259 259 259 259 259 259 259 259 259 260 260 260 261 261 262 263 263 264 265 265 266
290 292 295 297 300 303 306 307 309 311 312 314 316 317 319 321 322 323 324 325 326 327 328 329 329 328 328 327 327 326 325 325 324 324 323 322 321 319 317 315 314 312 311 310 309 307 305 302 299 295 291 287 284 281 279 276 273 270 267 266 264 264 263 262 262 261 261 261 260 260 260 260 261 261 261 261 262 262 263 263 264 264 265 266 266
Height
10669 10668 10668 10668 10667 10667 10666 10665 10665 10664 10663 10661 10660 10657 10655 10653 10650 10648 10645 10642 10638 10634 10631 10628 10624 10623 10622 10623 10624 10627 10630 10634 10638 10642 10646 10650 10655 10658 10660 10661 10661 10661 10663 10664 10665 10667 10668 10668 10669 10670 10671 10672 10672 10672 10671 10671 10670 10669 10669 10672 10672 10672 10673 10673 10672 10672 10673 10673 10673 10673 10672 10670 10670 10672 10672 10669 10668 10669 10667 10665 10664 10664 10662 10661 10660
10662 10663 10663 10662 10662 10661 10661 10660 10659 10659 10657 10656 10654 10652 10650 10648 10645 10643 10641 10638 10634 10629 10625 10622 10619 10617 10616 10617 10619 10621 10624 10628 10632 10636 10640 10645 10649 10650 10651 10653 10654 10655 10656 10658 10659 10660 10661 10662 10663 10665 10666 10666 10666 10667 10666 10666 10666 10664 10663 10664 10666 10667 10668 10667 10665 10665 10667 10667 10667 10668 10667 10666 10666 10667 10667 10664 10662 10664 10663 10660 10660 10659 10658 10657 10656
10656 10657 10657 10656 10656 10655 10654 10654 10653 10653 10651 10650 10648 10647 10645 10643 10640 10638 10636 10633 10630 10625 10620 10617 10615 10612 10611 10611 10613 10616 10619 10623 10627 10631 10635 10638 10640 10641 10643 10645 10646 10648 10650 10652 10653 10654 10655 10655 10656 10658 10660 10660 10660 10661 10660 10660 10660 10660 10657 10656 10660 10663 10661 10658 10658 10659 10660 10660 10661 10662 10661 10662 10661 10661 10661 10658 10656 10658 10658 10656 10655 10655 10654 10653 10652
10650 10650 10650 10650 10649 10648 10648 10648 10647 10647 10645 10644 10643 10641 10639 10638 10635 10633 10630 10628 10625 10621 10616 10613 10610 10608 10607 10606 10608 10611 10614 10618 10621 10626 10629 10631 10633 10635 10637 10639 10640 10642 10644 10645 10647 10648 10648 10648 10649 10651 10653 10654 10654 10654 10654 10654 10655 10655 10653 10652 10654 10655 10654 10652 10652 10654 10655 10653 10654 10655 10656 10658 10656 10655 10656 10653 10650 10652 10652 10651 10650 10650 10649 10648 10647
10643 10643 10643 10643 10642 10642 10642 10641 10641 10640 10639 10638 10637 10635 10634 10632 10630 10628 10626 10623 10619 10616 10613 10609 10606 10604 10603 10602 10603 10606 10609 10612 10616 10619 10622 10624 10627 10629 10632 10633 10634 10636 10637 10638 10640 10640 10641 10642 10643 10645 10646 10647 10648 10648 10648 10650 10650 10650 10649 10647 10646 10648 10650 10649 10648 10650 10650 10648 10646 10645 10648 10652 10651 10649 10650 10648 10645 10645 10646 10646 10645 10645 10644 10643 10642
10635 10635 10635 10636 10635 10635 10635 10635 10634 10633 10633 10632 10631 10629 10628 10626 10624 10623 10620 10617 10614 10611 10608 10605 10602 10600 10599 10598 10599 10601 10605 10607 10610 10613 10616 10618 10620 10622 10625 10627 10627 10628 10630 10632 10632 10633 10634 10635 10636 10638 10639 10640 10640 10642 10644 10645 10643 10643 10643 10643 10642 10644 10646 10646 10644 10645 10645 10644 10642 10638 10638 10642 10644 10644 10644 10643 10640 10640 10640 10640 10639 10639 10640 10639 10637
10627 10627 10628 10629 10628 10628 10628 10628 10627 10627 10626 10625 10624 10623 10622 10620 10619 10617 10615 10612 10609 10606 10603 10600 10598 10596 10595 10594 10595 10597 10600 10602 10605 10607 10608 10610 10612 10615 10618 10620 10621 10622 10624 10626 10626 10626 10627 10628 10630 10632 10633 10633 10634 10636 10638 10638 10637 10637 10638 10638 10639 10640 10641 10641 10640 10639 10639 10639 10639 10637 10633 10633 10637 10639 10639 10638 10636 10634 10634 10634 10633 10633 10634 10634 10632
10620 10620 10621 10622 10621 10621 10621 10621 10620 10620 10619 10618 10617 10616 10615 10614 10613 10611 10609 10607 10605 10602 10598 10596 10594 10592 10591 10590 10591 10592 10595 10597 10599 10600 10601 10603 10605 10608 10610 10612 10615 10617 10619 10619 10619 10619 10620 10622 10623 10625 10626 10627 10628 10630 10631 10631 10631 10632 10633 10633 10633 10634 10635 10636 10636 10634 10633 10633 10633 10633 10630 10627 10629 10633 10632 10631 10631 10630 10627 10628 10628 10626 10627 10628 10627
10614 10615 10615 10616 10615 10615 10614 10614 10614 10613 10612 10611 10610 10609 10608 10607 10606 10605 10604 10602 10600 10597 10594 10591 10589 10588 10587 10586 10586 10588 10590 10592 10593 10595 10596 10598 10600 10601 10603 10605 10608 10611 10612 10612 10613 10614 10615 10616 10617 10618 10619 10621 10622 10623 10624 10624 10625 10626 10627 10628 10628 10628 10628 10630 10631 10630 10629 10627 10626 10626 10625 10621 10622 10625 10624 10622 10623 10624 10622 10621 10622 10621 10620 10621 10622
10608 10609 10609 10609 10608 10608 10607 10607 10606 10605 10605 10604 10603 10602 10601 10600 10599 10598 10597 10596 10594 10592 10590 10587 10585 10583 10582 10581 10581 10582 10584 10586 10588 10589 10590 10592 10594 10595 10596 10598 10601 10603 10603 10603 10606 10608 10609 10610 10611 10612 10613 10614 10615 10616 10617 10618 10619 10620 10621 10623 10623 10623 10623 10624 10624 10624 10623 10622 10620 10620 10619 10616 10615 10617 10616 10614 10614 10616 10616 10614 10615 10615 10614 10614 10615
10602 10603 10602 10601 10601 10601 10600 10600 10599 10598 10597 10596 10595 10594 10593 10592 10592 10591 10590 10589 10588 10587 10585 10582 10580 10578 10577 10576 10576 10576 10578 10580 10582 10583 10585 10586 10587 10589 10590 10592 10594 10595 10595 10597 10599 10601 10602 10603 10605 10606 10606 10606 10607 10609 10610 10611 10612 10613 10615 10617 10617 10618 10619 10617 10614 10615 10616 10615 10614 10614 10613 10612 10612 10612 10611 10609 10608 10610 10610 10609 10609 10608 10608 10608 10608
10596 10596 10595 10594 10594 10593 10592 10592 10591 10591 10590 10589 10588 10587 10586 10585 10584 10583 10582 10582 10581 10581 10579 10578 10576 10574 10572 10571 10570 10570 10571 10573 10574 10576 10578 10580 10580 10582 10583 10585 10587 10588 10589 10591 10592 10594 10595 10596 10598 10598 10597 10598 10599 10601 10602 10603 10605 10606 10608 10609 10611 10613 10613 10608 10606 10608 10608 10606 10608 10609 10607 10606 10607 10607 10607 10606 10603 10604 10604 10604 10604 10603 10601 10601 10602
10589 10588 10587 10587 10586 10585 10585 10584 10583 10583 10582 10581 10580 10579 10578 10577 10576 10575 10575 10574 10573 10573 10572 10572 10570 10569 10567 10565 10564 10564 10564 10565 10567 10569 10571 10572 10573 10575 10576 10578 10579 10581 10583 10585 10586 10587 10587 10588 10589 10588 10588 10589 10592 10593 10595 10597 10598 10599 10601 10602 10604 10605 10604 10600 10600 10601 10600 10599 10602 10603 10600 10599 10599 10599 10602 10602 10598 10598 10598 10597 10598 10597 10595 10594 10595
10581 10580 10580 10579 10578 10577 10577 10576 10575 10575 10574 10573 10573 10572 10571 10569 10568 10568 10567 10566 10565 10564 10564 10564 10563 10563 10562 10560 10558 10557 10557 10558 10559 10560 10562 10564 10566 10567 10568 10571 10572 10574 10577 10578 10577 10577 10578 10579 10580 10579 10579 10583 10585 10586 10589 10590 10591 10592 10594 10595 10596 10596 10595 10594 10594 10594 10593 10593 10594 10594 10593 10592 10591 10591 10595 10597 10594 10593 10593 10591 10591 10592 10588 10587 10588
10572 10572 10571 10571 10570 10569 10568 10568 10567 10566 10566 10565 10565 10564 10563 10562 10561 10560 10559 10558 10557 10556 10556 10555 10555 10555 10555 10554 10552 10550 10549 10550 10551 10552 10553 10555 10557 10559 10560 10562 10564 10567 10569 10569 10568 10568 10569 10571 10572 10571 10572 10575 10577 10580 10582 10583 10584 10586 10587 10587 10587 10586 10587 10588 10588 10589 10588 10584 10585 10586 10585 10585 10586 10585 10587 10589 10588 10587 10586 10585 10585 10585 10582 10580 10582
10564 10564 10563 10562 10561 10560 10560 10560 10559 10558 10557 10557 10557 10556 10555 10553 10553 10552 10551 10550 10549 10548 10547 10546 10546 10546 10546 10547 10546 10544 10542 10541 10541 10543 10544 10545 10547 10549 10550 10553 10555 10558 10559 10559 10560 10560 10561 10562 10563 10563 10564 10566 10569 10573 10576 10576 10577 10578 10579 10579 10579 10579 10580 10580 10582 10584 10581 10578 10579 10579 10576 10577 10580 10578 10578 10579 10578 10578 10579 10579 10578 10578 10576 10574 10574
10556 10556 10554 10553 10553 10552 10552 10552 10550 10549 10549 10549 10548 10547 10546 10545 10544 10543 10542 10541 10540 10539 10538 10538 10537 10537 10537 10537 10537 10537 10535 10533 10532 10533 10534 10535 10537 10538 10540 10542 10545 10548 10550 10550 10552 10552 10551 10552 10554 10555 10556 10558 10561 10564 10567 10568 10568 10569 10570 10571 10572 10572 10572 10571 10574 10576 10574 10573 10573 10572 10570 10571 10572 10570 10568 10568 10567 10567 10570 10571 10569 10568 10569 10567 10566
10548 10548 10546 10545 10545 10545 10544 10543 10542 10541 10541 10540 10539 10538 10537 10535 10534 10533 10532 10531 10530 10529 10529 10528 10528 10527 10527 10527 10527 10527 10527 10525 10524 10524 10524 10525 10526 10528 10529 10531 10534 10537 10539 10540 10542 10543 10543 10544 10546 10548 10549 10550 10552 10554 10556 10559 10560 10560 10561 10563 10565 10565 10562 10562 10566 10568 10566 10566 10565 10564 10565 10564 10563 10563 10561 10559 10558 10558 10560 10560 10558 10558 10559 10560 10559
10540 10539 10538 10537 10537 10536 10535 10534 10534 10533 10532 10531 10530 10529 10527 10526 10525 10524 10522 10521 10520 10519 10518 10518 10517 10517 10517 10517 10517 10517 10517 10516 10515 10514 10514 10514 10515 10516 10518 10520 10523 10526 10527 10529 10532 10533 10534 10535 10537 10540 10541 10541 10542 10544 10545 10548 10550 10551 10553 10554 10556 10556 10554 10556 10558 10557 10556 10557 10557 10558 10560 10556 10554 10556 10556 10553 10551 10549 10548 10548 10547 10547 10549 10551 10551
10532 10531 10529 10528 10528 10528 10527 10525 10525 10524 10523 10521 10520 10519 10517 10516 10515 10513 10512 10511 10510 10509 10508 10507 10506 10506 10506 10506 10506 10506 10505 10505 10504 10504 10503 10503 10503 10504 10506 10508 10511 10513 10515 10518 10520 10522 10525 10526 10528 10531 10531 10530 10533 10535 10535 10536 10539 10542 10545 10545 10546 10547 10546 10547 10549 10547 10546 10548 10549 10550 10552 10550 10547 10548 10548 10546 10543 10540 10540 10539 10536 10536 10538 10540 10539
10525 10523 10521 10520 10520 10519 10518 10516 10515 10514 10514 10512 10510 10509 10507 10506 10504 10503 10501 10500 10498 10497 10496 10495 10495 10494 10493 10493 10493 10493 10493 10493 10493 10492 10492 10492 10492 10491 10492 10495 10498 10501 10503 10505 10508 10511 10514 10516 10517 10520 10521 10520 10522 10525 10526 10527 10529 10533 10536 10536 10536 10536 10536 10537 10540 10539 10538 10539 10540 10540 10542 10542 10540 10540 10540 10539 10536 10534 10533 10532 10528 10527 10527 10527 10526
10517 10516 10514 10512 10512 10511 10510 10508 10506 10505 10504 10503 10501 10499 10497 10495 10493 10492 10490 10488 10486 10485 10483 10483 10482 10482 10481 10480 10480 10480 10480 10480 10480 10480 10479 10479 10479 10479 10480 10481 10484 10487 10490 10493 10496 10499 10502 10504 10506 10509 10511 10511 10513 10514 10516 10518 10521 10524 10527 10527 10526 10526 10526 10527 10529 10530 10529 10529 10530 10530 10531 10531 10532 10532 10531 10531 10530 10529 10527 10525 10523 10520 10518 10518 10516
10509 10508 10506 10505 10504 10502 10501 10499 10497 10495 10494 10493 10491 10489 10487 10484 10482 10480 10479 10476 10474 10472 10471 10469 10468 10468 10467 10467 10466 10466 10466 10466 10466 10467 10467 10466 10466 10467 10468 10469 10471 10474 10476 10479 10482 10486 10489 10492 10495 10497 10500 10502 10503 10504 10506 10509 10512 10514 10516 10516 10516 10516 10516 10517 10518 10519 10519 10519 10520 10521 10522 10522 10522 10523 10523 10522 10522 10522 10521 10520 10518 10515 10512 10511 10510
10501 10500 10498 10496 10495 10494 10492 10490 10488 10485 10483 10482 10480 10478 10476 10473 10471 10469 10466 10464 10462 10460 10458 10456 10454 10453 10453 10453 10453 10452 10452 10452 10452 10453 10453 10453 10453 10454 10455 10457 10458 10461 10463 10466 10469 10473 10477 10480 10482 10485 10488 10491 10494 10496 10497 10498 10501 10503 10506 10507 10507 10507 10507 10508 10508 10508 10509 10510 10511 10512 10513 10513 10513 10513 10513 10513 10513 10514 10515 10514 10512 10508 10505 10504 10503
10493 10491 10489 10487 10486 10484 10482 10480 10478 10475 10473 10471 10469 10467 10464 10462 10459 10456 10454 10451 10448 10446 10444 10441 10440 10439 10438 10438 10439 10439 10439 10438 10438 10439 10440 10440 10441 10441 10442 10444 10446 10448 10451 10453 10456 10460 10464 10467 10470 10473 10475 10479 10483 10486 10487 10488 10489 10492 10495 10497 10498 10498 10498 10499 10499 10499 10500 10501 10503 10503 10504 10505 10505 10504 10504 10504 10505 10505 10506 10506 10504 10500 10498 10496 10495
10485 10483 10480 10478 10476 10474 10472 10470 10467 10465 10462 10460 10457 10455 10452 10449 10446 10443 10440 10437 10434 10432 10429 10427 10425 10424 10423 10423 10424 10425 10425 10425 10425 10425 10426 10427 10429 10429 10430 10431 10434 10437 10439 10441 10444 10447 10451 10454 10458 10461 10463 10467 10471 10474 10475 10477 10479 10481 10484 10487 10488 10489 10490 10490 10491 10491 10491 10491 10492 10493 10494 10495 10497 10496 10496 10496 10496 10496 10496 10496 10496 10493 10490 10488 10487
10476 10474 10471 10468 10466 10463 10461 10459 10456 10454 10451 10448 10445 10443 10440 10436 10433 10429 10425 10422 10419 10417 10415 10413 10411 10410 10409 10409 10409 10410 10411 10412 10412 10412 10413 10414 10416 10417 10418 10419 10422 10424 10427 10429 10432 10435 10438 10442 10446 10448 10450 10454 10460 10462 10463 10466 10469 10470 10472 10475 10478 10479 10481 10482 10482 10482 10482 10481 10482 10483 10484 10485 10486 10487 10488 10488 10488 10487 10486 10486 10485 10484 10482 10480 10479
10467 10465 10462 10459 10456 10453 10450 10447 10445 10442 10439 10436 10433 10430 10427 10424 10420 10416 10413 10409 10406 10404 10401 10399 10397 10395 10394 10394 10394 10395 10396 10397 10399 10399 10400 10401 10402 10404 10406 10408 10410 10412 10415 10417 10420 10422 10426 10430 10434 10436 10438 10441 10446 10450 10452 10454 10457 10459 10461 10464 10467 10469 10471 10472 10473 10473 10472 10471 10471 10472 10473 10474 10475 10476 10478 10478 10478 10477 10477 10476 10475 10474 10473 10472 10470
10459 10456 10453 10450 10447 10444 10440 10436 10433 10430 10427 10424 10421 10418 10415 10412 10408 10404 10401 10398 10394 10391 10389 10387 10384 10382 10380 10380 10381 10381 10382 10383 10384 10386 10387 10388 10389 10391 10393 10396 10398 10400 10402 10405 10408 10410 10413 10417 10421 10424 10426 10428 10432 10437 10440 10442 10444 10447 10450 10452 10455 10458 10460 10461 10462 10462 10462 10461 10461 10462 10462 10463 10463 10465 10466 10467 10467 10467 10467 10466 10465 10464 10463 10462 10461
10449 10447 10444 10441 10438 10434 10431 10427 10423 10419 10415 10412 10409 10406 10403 10400 10397 10393 10390 10387 10384 10381 10379 10376 10373 10370 10368 10368 10368 10369 10369 10370 10371 10373 10374 10376 10376 10378 10381 10383 10385 10388 10390 10393 10396 10398 10401 10404 10408 10412 10415 10416 10418 10424 10428 10430 10432 10435 10438 10440 10442 10445 10447 10449 10450 10451 10452 10451 10451 10451 10452 10452 10453 10454 10455 10456 10457 10456 10456 10455 10455 10454 10453 10452 10452
10440 10437 10434 10431 10428 10425 10421 10418 10414 10410 10406 10402 10398 10394 10391 10388 10385 10382 10379 10376 10374 10371 10369 10366 10364 10361 10358 10356 10356 10357 10358 10358 10359 10361 10362 10364 10365 10366 10368 10370 10373 10376 10378 10381 10383 10386 10388 10392 10395 10399 10402 10404 10406 10410 10416 10419 10420 10422 10425 10428 10431 10433 10435 10437 10438 10439 10441 10441 10441 10441 10441 10442 10442 10443 10444 10445 10446 10446 10445 10444 10444 10443 10442 10442 10441
10431 10428 10425 10422 10419 10416 10412 10409 10405 10401 10397 10393 10389 10385 10382 10378 10375 10372 10368 10365 10363 10361 10359 10357 10355 10352 10349 10347 10346 10346 10347 10347 10348 10349 10351 10352 10354 10355 10356 10358 10361 10364 10367 10369 10371 10374 10377 10379 10382 10386 10389 10392 10394 10397 10402 10406 10408 10409 10412 10415 10418 10421 10423 10425 10426 10428 10429 10430 10431 10431 10431 10431 10432 10433 10433 10434 10435 10435 10435 10434 10433 10432 10431 10430 10430
10422 10419 10416 10413 10410 10407 10403 10400 10397 10393 10389 10385 10381 10378 10374 10370 10366 10363 10359 10356 10353 10352 10350 10349 10346 10344 10341 10339 10337 10337 10337 10337 10338 10339 10340 10342 10343 10344 10346 10347 10349 10352 10355 10357 10360 10362 10365 10367 10370 10373 10376 10379 10382 10385 10389 10392 10395 10397 10399 10402 10405 10408 10411 10413 10415 10417 10418 10418 10419 10420 10421 10421 10421 10421 10422 10422 10423 10423 10424 10423 10423 10422 10421 10420 10419
10414 10411 10408 10404 10401 10398 10395 10392 10389 10385 10381 10377 10374 10370 10367 10363 10360 10356 10351 10348 10345 10342 10341 10340 10339 10336 10334 10332 10330 10328 10328 10328 10329 10329 10330 10331 10333 10334 10336 10337 10338 10340 10343 10346 10348 10351 10353 10356 10359 10361 10364 10367 10370 10373 10376 10379 10382 10385 10387 10389 10392 10395 10398 10400 10403 10404 10406 10406 10408 10409 10409 10410 10410 10410 10410 10410 10411 10411 10412 10412 10411 10411 10410 10409 10408
10406 10403 10400 10396 10393 10390 10388 10385 10382 10378 10375 10371 10367 10363 10360 10357 10353 10350 10346 10342 10338 10335 10332 10331 10330 10329 10327 10325 10323 10321 10320 10320 10320 10320 10321 10322 10323 10324 10326 10327 10328 10330 10332 10334 10337 10339 10342 10345 10347 10350 10352 10355 10357 10360 10363 10366 10369 10372 10374 10376 10378 10381 10384 10386 10389 10391 10393 10394 10395 10396 10397 10398 10398 10398 10398 10398 10398 10399 10399 10399 10399 10399 10399 10398 10398
10399 10395 10392 10389 10386 10383 10381 10378 10375 10372 10369 10365 10361 10357 10354 10350 10347 10344 10341 10337 10333 10330 10327 10324 10322 10321 10320 10318 10316 10315 10313 10312 10312 10312 10313 10313 10314 10315 10316 10317 10319 10320 10322 10323 10326 10328 10330 10333 10335 10338 10341 10343 10346 10348 10351 10354 10356 10359 10361 10363 10365 10368 10370 10373 10375 10377 10379 10381 10382 10384 10384 10385 10386 10386 10386 10387 10387 10387 10387 10387 10387 10387 10386 10386 10386
10391 10388 10385 10381 10379 10377 10374 10372 10369 10366 10363 10360 10356 10352 10348 10345 10341 10338 10335 10332 10328 10325 10322 10319 10316 10314 10313 10311 10310 10308 10307 10306 10305 10304 10304 10305 10305 10306 10307 10308 10309 10311 10312 10314 10315 10317 10319 10322 10324 10326 10329 10332 10334 10336 10339 10341 10344 10346 10348 10351 10353 10355 10357 10359 10361 10363 10365 10367 10369 10370 10371 10372 10373 10374 10375 10375 10376 10376 10376 10376 10375 10374 10374 10375 10375
10384 10381 10378 10375 10373 10371 10369 10366 10364 10361 10358 10355 10351 10347 10344 10340 10336 10333 10329 10326 10323 10320 10317 10315 10312 10309 10307 10305 10303 10302 10301 10299 10298 10297 10297 10297 10297 10297 10298 10299 10300 10301 10303 10304 10305 10307 10309 10311 10313 10315 10317 10319 10322 10324 10326 10328 10331 10333 10336 10338 10340 10342 10344 10346 10348 10350 10352 10354 10355 10356 10357 10358 10360 10361 10363 10363 10364 10364 10364 10364 10363 10362 10362 10363 10363
10378 10376 10373 10370 10368 10366 10364 10361 10359 10356 10353 10350 10346 10343 10339 10336 10332 10328 10324 10321 10318 10315 10312 10310 10308 10305 10303 10300 10297 10296 10295 10294 10292 10291 10290 10289 10289 10289 10290 10290 10291 10292 10293 10295 10296 10297 10299 10300 10302 10304 10306 10308 10310 10312 10314 10316 10318 10321 10323 10325 10327 10329 10331 10332 10334 10336 10338 10340 10342 10343 10344 10345 10347 10348 10349 10350 10350 10350 10350 10350 10350 10350 10350 10351 10351
10373 10370 10368 10365 10363 10361 10359 10356 10353 10351 10348 10345 10341 10338 10334 10331 10328 10324 10320 10316 10313 10310 10307 10305 10302 10300 10298 10296 10293 10291 10289 10288 10287 10285 10284 10283 10282 10282 10282 10282 10283 10283 10284 10285 10286 10288 10289 10291 10292 10293 10295 10296 10298 10300 10302 10304 10306 10308 10310 10312 10314 10316 10318 10319 10321 10323 10325 10327 10328 10329 10330 10331 10333 10335 10335 10335 10335 10336 10336 10336 10337 10337 10337 10338 10339
10368 10365 10363 10361 10358 10356 10353 10351 10348 10346 10343 10340 10337 10334 10330 10327 10323 10320 10316 10313 10308 10305 10302 10300 10297 10295 10293 10291 10289 10287 10284 10282 10281 10280 10278 10277 10276 10275 10274 10274 10274 10275 10275 10276 10277 10278 10279 10281 10282 10283 10284 10286 10287 10289 10290 10292 10294 10296 10297 10299 10301 10303 10305 10307 10309 10310 10311 10313 10315 10316 10317 10317 10319 10321 10322 10322 10322 10322 10322 10322 10323 10323 10324 10324 10325
10362 10360 10358 10356 10354 10352 10349 10346 10344 10341 10339 10336 10334 10331 10327 10324 10320 10316 10313 10309 10305 10301 10298 10295 10292 10290 10288 10286 10284 10282 10280 10278 10276 10275 10273 10271 10269 10269 10268 10267 10267 10267 10267 10267 10268 10269 10270 10271 10272 10273 10274 10275 10276 10277 10279 10280 10282 10284 10286 10287 10289 10290 10292 10294 10295 10296 10298 10299 10301 10302 10303 10303 10305 10306 10308 10309 10309 10309 10308 10308 10308 10308 10309 10310 10311
10357 10355 10353 10351 10350 10347 10345 10342 10340 10338 10335 10333 10330 10328 10325 10321 10318 10314 10310 10306 10303 10299 10295 10292 10288 10285 10283 10281 10279 10277 10275 10273 10271 10270 10268 10266 10264 10262 10262 10261 10260 10260 10259 10259 10259 10260 10261 10262 10262 10263 10264 10265 10266 10267 10268 10269 10270 10272 10274 10275 10276 10277 10279 10281 10282 10283 10284 10286 10287 10287 10289 10290 10291 10292 10293 10294 10295 10295 10295 10295 10295 10294 10294 10295 10295
10353 10351 10349 10347 10345 10344 10341 10339 10336 10334 10332 10329 10327 10324 10321 10318 10315 10312 10308 10304 10300 10296 10292 10289 10286 10282 10279 10277 10274 10272 10270 10268 10266 10264 10263 10262 10260 10257 10255 10254 10254 10253 10252 10252 10251 10251 10251 10252 10253 10253 10254 10254 10255 10256 10257 10258 10259 10260 10261 10262 10264 10265 10267 10268 10269 10270 10271 10272 10273 10274 10275 10277 10278 10279 10279 10279 10280 10280 10281 10281 10280 10279 10279 10280 10281
10348 10346 10344 10343 10341 10339 10337 10335 10332 10330 10328 10326 10323 10320 10318 10315 10312 10309 10305 10302 10298 10294 10290 10286 10283 10280 10276 10273 10271 10268 10265 10264 10262 10259 10257 10256 10255 10253 10250 10248 10247 10246 10245 10244 10244 10243 10243 10243 10243 10244 10244 10244 10244 10245 10246 10247 10248 10249 10250 10251 10252 10253 10254 10255 10256 10257 10258 10259 10260 10261 10262 10263 10265 10265 10265 10265 10265 10266 10266 10266 10265 10265 10266 10266 10266
10343 10341 10340 10338 10337 10335 10333 10331 10329 10326 10324 10322 10319 10316 10314 10311 10308 10305 10302 10299 10296 10292 10288 10284 10281 10277 10274 10270 10268 10265 10262 10259 10257 10255 10253 10250 10248 10247 10246 10243 10241 10240 10239 10237 10237 10236 10235 10235 10235 10235 10235 10235 10235 10235 10236 10236 10237 10238 10239 10240 10240 10241 10241 10242 10243 10244 10245 10246 10247 10248 10248 10250 10251 10251 10251 10251 10252 10252 10252 10251 10251 10251 10252 10252 10252
10338 10337 10335 10334 10332 10331 10329 10327 10325 10323 10320 10318 10315 10312 10310 10307 10304 10301 10299 10296 10293 10289 10286 10282 10279 10275 10272 10268 10265 10262 10259 10256 10253 10251 10249 10246 10243 10241 10239 10238 10236 10234 10232 10231 10230 10229 10228 10227 10227 10227 10226 10226 10226 10226 10226 10225 10226 10227 10228 10228 10229 10229 10230 10230 10231 10232 10232 10233 10234 10234 10235 10236 10237 10237 10237 10238 10238 10238 10238 10237 10237 10237 10238 10238 10238
10334 10332 10331 10330 10328 10326 10324 10322 10321 10319 10316 10314 10312 10309 10306 10303 10300 10297 10294 10292 10289 10286 10283 10280 10276 10273 10270 10266 10263 10259 10256 10253 10250 10247 10245 10243 10240 10237 10234 10232 10230 10228 10227 10225 10223 10222 10221 10220 10219 10218 10218 10217 10217 10217 10216 10216 10215 10216 10216 10217 10217 10217 10218 10218 10219 10219 10220 10221 10221 10222 10222 10223 10223 10223 10224 10224 10224 10224 10224 10224 10223 10223 10223 10223 10224
10330 10328 10327 10325 10324 10322 10320 10318 10316 10314 10311 10309 10307 10305 10302 10299 10297 10294 10290 10287 10285 10282 10279 10276 10273 10270 10266 10263 10260 10257 10254 10251 10248 10244 10241 10238 10236 10234 10231 10227 10225 10223 10221 10219 10217 10216 10214 10213 10212 10211 10210 10209 10208 10208 10207 10206 10206 10205 10205 10206 10206 10206 10206 10206 10207 10207 10208 10208 10208 10209 10209 10210 10210 10210 10210 10211 10211 10211 10211 10210 10210 10209 10209 10209 10209
10326 10324 10323 10321 10320 10318 10316 10313 10311 10309 10307 10304 10302 10300 10298 10295 10292 10289 10286 10283 10280 10277 10275 10272 10269 10266 10263 10260 10256 10253 10250 10247 10244 10242 10238 10235 10232 10229 10227 10224 10221 10218 10215 10213 10211 10209 10208 10206 10205 10204 10202 10201 10200 10199 10198 10198 10197 10196 10196 10195 10195 10195 10195 10195 10195 10195 10196 10196 10196 10196 10196 10197 10197 10197 10197 10197 10198 10197 10197 10197 10197 10196 10196 10196 10196
10322 10320 10319 10317 10315 10314 10312 10309 10307 10305 10302 10300 10297 10295 10293 10290 10287 10285 10282 10279 10276 10273 10270 10267 10264 10262 10259 10256 10253 10250 10246 10243 10240 10237 10235 10232 10228 10225 10222 10220 10217 10214 10211 10208 10206 10204 10201 10199 10197 10196 10195 10194 10192 10191 10190 10189 10188 10187 10187 10186 10185 10185 10184 10184 10184 10184 10184 10184 10184 10184 10184 10184 10184 10184 10184 10184 10184 10184 10184 10184 10184 10183 10183 10182 10182